User: anonymous   Login
Location: Unspecified
(0.0000°N, 0.0000°E)
Time: 09:30:39
(UTC+00:00)
Language:

PAYLOAD H - Orbit

View from above orbital plane
View from above orbital plane
View from above satellite
View from above satellite

Ground track
Ground track

The orbit data is extracted from the following two-line orbital elements,

1 27847U 03031H   17326.49474539 +.00000049 +00000-0 +41679-4 0  9993
2 27847 098.6840 331.8476 0008574 218.8500 141.2062 14.22082864746915
Epoch (UTC): 22 November 2017 11:52:26
Eccentricity: 0.0008574
inclination: 98.6840°
perigee height: 812 km
apogee height: 824 km
right ascension of ascending node: 331.8476°
argument of perigee: 218.8500°
revolutions per day: 14.22082864
mean anomaly at epoch: 141.2062°
orbit number at epoch: 74691

The dashed part of the orbit path shows where the satellite is in the earth's shadow,  

DLR